Location: Forst
(46.9333°N, 15.4333°E)
Time: 16:32:39
(UTC+00:00)

Cosmos 1515 Rocket - Pass Details

Date: 01 December 2020
Orbit: 605 x 631 km, 82.5° (Epoch: 27 January)

Event Time Altitude Azimuth Distance (km) Brightness Sun altitude
Rises 17:14:02 0° 198° (SSW) 2,871 7.4 -20.2°
Reaches altitude 10° 17:16:16 10° 203° (SSW) 1,974 6.6 -20.6°
Maximum altitude 17:20:34 57° 282° (WNW) 737 4.2 -21.3°
Drops below altitude 10° 17:24:57 10° 2° (N) 2,007 6.1 -22.1°
Enters shadow 17:25:05 - 2° (N) 2,060 6.1 -22.1°
